Date String (YYYY-MM-DD hh:mm:ss) UTC,Instrument flags,Ambient pressure (hPa),Sample flow (lpm),Bypass flow (lpm),Sample temperature (°C),Ambient temperature (°C),ASC tube jacket temperature (°C),LED temperature (°C),Box temperature (°C),Sample RH (%),Span deviation,Mass concentration (μg/m³),Mass concentration (μg/m³),Mass concentration (μg/m³)
DateTimeUTC,F1_M11,P_M11,Q1_M11,Q2_M11,T1_M11,T2_M11,T3_M11,T4_M11,T5_M11,U1_M11,ZSPAN_M11,X0_M11,X2_M11,X1_M11
2022-04-01 20:00:00,,0820.8,5.01,0.00,25.9,25.2,00.0,34.7,27.7,09.7,0000.0,0009.35,0004.62,0003.97
2022-04-01 20:01:00,,0820.8,5.00,0.00,25.9,25.2,00.0,34.7,27.7,09.9,0000.0,0008.48,0004.60,0003.94
2022-04-01 20:02:00,,0820.8,5.01,0.00,25.9,25.2,00.0,34.7,27.8,10.1,0000.0,0009.00,0004.59,0003.92
2022-04-01 20:03:00,,0820.9,5.00,0.00,25.9,25.2,00.0,34.7,27.7,09.7,0000.0,0009.09,0004.60,0003.90
2022-04-01 20:04:00,,0820.9,5.00,0.00,25.9,25.2,00.0,34.8,27.7,09.5,0000.0,0009.14,0004.61,0003.89
2022-04-01 20:05:00,,0820.9,5.00,0.00,25.8,25.2,00.0,34.8,27.7,09.6,0000.0,0008.78,0004.56,0003.87
2022-04-01 20:06:00,,0820.8,5.00,0.00,25.9,25.2,00.0,34.8,27.7,10.0,0000.0,0008.94,0004.57,0003.86
2022-04-01 20:07:00,,0820.8,5.00,0.00,25.9,25.2,00.0,34.8,27.7,09.7,0000.0,0009.32,0004.58,0003.87
2022-04-01 20:08:00,,0820.9,5.00,0.00,25.9,25.2,00.0,34.8,27.7,09.6,0000.0,0009.52,0004.55,0003.87
2022-04-01 20:09:00,,0820.8,4.99,0.00,25.9,25.2,00.0,34.8,27.7,09.8,0000.0,0009.55,0004.51,0003.87
2022-04-01 20:10:00,,0820.8,5.00,0.00,25.9,25.2,00.0,34.8,27.7,09.9,0000.0,0010.24,0004.50,0003.88
2022-04-01 20:11:00,,0820.8,4.99,0.00,25.9,25.2,00.0,34.8,27.7,09.8,0000.0,0010.95,0004.48,0003.88
2022-04-01 20:12:00,,0820.8,5.01,0.00,25.9,25.2,00.0,34.8,27.7,09.5,0000.0,0011.03,0004.50,0003.90
2022-04-01 20:13:00,,0820.8,5.01,0.00,25.9,25.2,00.0,34.8,27.7,09.8,0000.0,0010.48,0004.49,0003.91
2022-04-01 20:14:00,,0820.9,5.01,0.00,25.9,25.2,00.0,34.8,27.7,10.3,0000.0,0010.71,0004.49,0003.89
2022-04-01 20:15:00,,0820.8,5.00,0.00,25.9,25.2,00.0,34.8,27.7,09.8,0000.0,0010.77,0004.47,0003.87
2022-04-01 20:16:00,,0820.8,5.01,0.00,25.9,25.2,00.0,34.8,27.7,09.8,0000.0,0010.79,0004.49,0003.87
2022-04-01 20:17:00,,0820.9,4.99,0.00,25.9,25.2,00.0,34.8,27.7,09.7,0000.0,0011.39,0004.48,0003.87
2022-04-01 20:18:00,,0820.8,5.00,0.00,25.9,25.2,00.0,34.8,27.7,09.3,0000.0,0011.01,0004.46,0003.86
2022-04-01 20:19:00,,0820.8,5.00,0.00,25.9,25.2,00.0,34.8,27.7,09.7,0000.0,0010.87,0004.50,0003.87
2022-04-01 20:20:00,,0820.8,5.00,0.00,25.9,25.2,00.0,34.8,27.7,09.7,0000.0,0011.75,0004.56,0003.89
2022-04-01 20:21:00,,0820.8,5.02,0.00,25.9,25.2,00.0,34.8,27.7,10.3,0000.0,0011.52,0004.59,0003.89
2022-04-01 20:22:00,,0820.8,5.00,0.00,25.9,25.1,00.0,34.8,27.7,10.4,0000.0,0011.16,0004.63,0003.88
2022-04-01 20:23:00,,0820.8,5.00,0.00,25.9,25.1,00.0,34.8,27.7,11.3,0000.0,0011.12,0004.60,0003.87
2022-04-01 20:24:00,,0820.7,5.00,0.00,25.9,25.1,00.0,34.8,27.7,11.7,0000.0,0011.06,0004.57,0003.86
2022-04-01 20:25:00,,0820.8,4.98,0.00,25.9,25.1,00.0,34.8,27.7,11.5,0000.0,0011.07,0004.57,0003.86
2022-04-01 20:26:00,,0820.8,5.00,0.00,25.9,25.1,00.0,34.8,27.7,11.2,0000.0,0011.10,0004.61,0003.89
2022-04-01 20:27:00,,0820.8,5.01,0.00,25.9,25.1,00.0,34.8,27.7,11.5,0000.0,0011.40,0004.65,0003.91
2022-04-01 20:28:00,,0820.8,5.00,0.00,25.9,25.1,00.0,34.8,27.7,11.4,0000.0,0011.22,0004.66,0003.92
2022-04-01 20:29:00,,0820.8,5.00,0.00,25.9,25.2,00.0,34.8,27.7,11.1,0000.0,0010.92,0004.66,0003.93
2022-04-01 20:30:00,,0820.8,4.99,0.00,25.9,25.2,00.0,34.8,27.7,11.2,0000.0,0011.16,0004.65,0003.94
2022-04-01 20:31:00,,0820.8,4.99,0.00,25.9,25.2,00.0,34.8,27.7,11.3,0000.0,0010.58,0004.68,0003.94
2022-04-01 20:32:00,,0820.8,5.00,0.00,25.9,25.2,00.0,34.8,27.7,11.4,0000.0,0010.24,0004.66,0003.94
2022-04-01 20:33:00,,0820.7,5.00,0.00,25.9,25.2,00.0,34.8,27.7,10.8,0000.0,0010.27,0004.71,0003.97
2022-04-01 20:34:00,,0820.7,5.00,0.00,25.9,25.2,00.0,34.8,27.7,10.9,0000.0,0010.47,0004.74,0004.01
2022-04-01 20:35:00,,0820.7,5.00,0.00,25.9,25.2,00.0,34.8,27.7,10.9,0000.0,0010.90,0004.79,0004.03
2022-04-01 20:36:00,,0820.7,5.02,0.00,25.9,25.2,00.0,34.8,27.7,11.0,0000.0,0011.08,0004.85,0004.04
2022-04-01 20:37:00,,0820.6,5.00,0.00,25.9,25.1,00.0,34.8,27.7,11.4,0000.0,0011.11,0004.79,0004.05
2022-04-01 20:38:00,,0820.6,4.99,0.00,25.9,25.1,00.0,34.8,27.7,10.8,0000.0,0011.77,0004.74,0004.04
2022-04-01 20:39:00,,0820.6,4.99,0.00,25.9,25.1,00.0,34.8,27.7,10.6,0000.0,0012.30,0004.73,0004.06
2022-04-01 20:40:00,,0820.6,5.00,0.00,25.9,25.2,00.0,34.8,27.7,10.5,0000.0,0012.47,0004.77,0004.08
2022-04-01 20:41:00,,0820.7,5.00,0.00,25.9,25.2,00.0,34.8,27.7,10.7,0000.0,0013.25,0004.79,0004.08
2022-04-01 20:42:00,,0820.7,5.00,0.00,25.9,25.1,00.0,34.8,27.7,10.6,0000.0,0013.96,0004.78,0004.09
2022-04-01 20:43:00,,0820.7,5.00,0.00,25.9,25.1,00.0,34.8,27.7,10.3,0000.0,0013.77,0004.79,0004.11
2022-04-01 20:44:00,,0820.6,5.00,0.00,25.9,25.2,00.0,34.8,27.7,10.7,0000.0,0013.37,0004.77,0004.13
2022-04-01 20:45:00,,0820.6,5.01,0.00,25.9,25.1,00.0,34.8,27.7,10.9,0000.0,0013.62,0004.75,0004.12
2022-04-01 20:46:00,,0820.6,5.01,0.00,25.9,25.1,00.0,34.8,27.7,10.8,0000.0,0013.73,0004.73,0004.13
2022-04-01 20:47:00,,0820.7,4.99,0.00,25.9,25.2,00.0,34.8,27.7,11.4,0000.0,0013.57,0004.66,0004.12
2022-04-01 20:48:00,,0820.6,4.99,0.00,25.9,25.2,00.0,34.8,27.7,11.8,0000.0,0013.43,0004.70,0004.12
2022-04-01 20:49:00,,0820.7,5.00,0.00,25.9,25.2,00.0,34.8,27.7,11.4,0000.0,0012.54,0004.71,0004.12
2022-04-01 20:50:00,,0820.6,5.01,0.00,25.9,25.2,00.0,34.8,27.7,11.5,0000.0,0011.57,0004.69,0004.12
2022-04-01 20:51:00,,0820.6,5.00,0.00,25.9,25.2,00.0,34.8,27.7,11.5,0000.0,0012.16,0004.69,0004.13
2022-04-01 20:52:00,,0820.7,5.00,0.00,25.9,25.2,00.0,34.9,27.7,11.2,0000.0,0011.99,0004.70,0004.14
2022-04-01 20:53:00,,0820.7,5.00,0.00,25.9,25.2,00.0,34.9,27.8,11.1,0000.0,0012.44,0004.74,0004.16
2022-04-01 20:54:00,,0820.8,5.01,0.00,25.9,25.2,00.0,34.9,27.7,11.3,0000.0,0012.92,0004.75,0004.18
2022-04-01 20:55:00,,0820.7,5.00,0.00,25.9,25.2,00.0,34.9,27.8,11.1,0000.0,0013.22,0004.81,0004.20
2022-04-01 20:56:00,,0820.8,4.99,0.00,25.9,25.3,00.0,34.9,27.8,11.1,0000.0,0013.06,0004.83,0004.23
2022-04-01 20:57:00,,0820.8,5.00,0.00,26.0,25.3,00.0,34.9,27.8,11.2,0000.0,0012.83,0004.89,0004.26
2022-04-01 20:58:00,,0820.8,5.00,0.00,26.0,25.3,00.0,34.9,27.8,11.3,0000.0,0013.54,0004.93,0004.29
2022-04-01 20:59:00,,0820.8,5.00,0.00,26.0,25.4,00.0,34.9,27.9,11.2,0000.0,0013.82,0004.97,0004.33
